Flag for Germany Weather past 2 weeks in Kleve, North Rhine-Westphalia, Germany

Now
64 °F

Passing clouds.


Feels Like: 64 °F
Forecast: 60 / 70 °F
Wind: 5 mph from Northeast

Location: Niederrhein

Current Time: Jul 24, 2014 at 5:55:14 AM

Latest Report: Jul 24, 2014 at 5:20 AM


Visibility: N/A

Pressure: 30.01 "Hg

Humidity: 78%

Dew point: 57 °F

Location of KleveLocation

Historic Weather in Kleve — Graph

°F

Kleve temperature yesterday

Maximum temperature yesterday: 84 °F (at 4:50 PM)
Minimum temperature yesterday: 66 °F (at 4:50 AM)
Average temperature yesterday: 76 °F

Past Weeks' High & Low Weather Summary

 TemperatureHumidityPressure
High93 °F (Jul 19, 3:50 PM)100% (Jul 8, 11:20 PM)30.18 "Hg (Jul 8, 11:20 PM)
Low54 °F (Jul 15, 5:50 AM)28% (Jul 19, 3:50 PM)29.68 "Hg (Jul 9, 2:50 PM)
Average71 °F74%29.95 "Hg
* Reported Jul 8 11:20 PM — Jul 23 11:50 PM, Kleve, Weather by CustomWeather, © 2014

Note: Actual official high and low records may vary slightly from our data, if they occured in-between our weather recording intervals... More about our weather records

Advertising

Kleve weather history for previous 24 hours

 ConditionsComfort  
Time TempWeatherWind HumidityBarometerVisibility
11:50 PM
Jul 23
70 °FPassing clouds.6 mph60%30.04 "HgN/A
11:20 PM72 °FPassing clouds.5 mph57%30.04 "HgN/A
10:50 PM72 °FPassing clouds.5 mph57%30.04 "HgN/A
10:20 PM73 °FSunny.3 mph53%30.04 "Hg10 mi
9:50 PM73 °FSunny.2 mph53%30.04 "Hg10 mi
8:50 PM79 °FPassing clouds.5 mph45%30.01 "HgN/A
8:20 PM79 °FPassing clouds.6 mph45%30.01 "HgN/A
7:50 PM81 °FPassing clouds.7 mph42%30.01 "HgN/A
7:20 PM81 °FPassing clouds.8 mph42%30.01 "HgN/A
6:50 PM82 °FPassing clouds.8 mph40%30.01 "HgN/A
6:20 PM82 °FPassing clouds.8 mph37%30.01 "HgN/A
5:50 PM82 °FPassing clouds.8 mph37%30.01 "HgN/A
5:20 PM84 °FPassing clouds.9 mph35%30.04 "HgN/A
4:50 PM84 °FPassing clouds.10 mph37%30.04 "HgN/A
4:20 PM82 °FPassing clouds.9 mph37%30.04 "HgN/A
3:50 PM82 °FPassing clouds.10 mph40%30.04 "HgN/A
3:20 PM82 °FPassing clouds.9 mph45%30.04 "HgN/A
2:50 PM82 °FSunny.9 mph45%30.07 "Hg10 mi
12:50 PM79 °FSunny.7 mph58%30.07 "Hg10 mi
11:50 AM77 °FPassing clouds.9 mph61%30.09 "HgN/A
11:20 AM75 °FPassing clouds.7 mph65%30.09 "HgN/A
10:50 AM73 °FPassing clouds.8 mph69%30.09 "HgN/A
10:20 AM73 °FPassing clouds.8 mph69%30.09 "HgN/A
9:50 AM73 °FPassing clouds.6 mph65%30.09 "HgN/A
7:50 AM70 °FPassing clouds.7 mph73%30.09 "HgN/A
7:20 AM68 °FPassing clouds.6 mph78%30.09 "HgN/A
6:50 AM68 °FPassing clouds.7 mph83%30.09 "HgN/A
6:20 AM68 °FPassing clouds.6 mph83%30.09 "HgN/A
5:50 AM66 °FPassing clouds.6 mph88%30.09 "HgN/A
5:20 AM66 °FPassing clouds.5 mph88%30.07 "HgN/A
Weather by CustomWeather, © 2014

See weather overviewHow to use our weather pages